NKS44 KDTW-KLAS

Flight info

Callsign NKS44
Flight time 3h 58m
Altitude 32000
Route KAYLN3 SMUUV OBK IOW/N0461F340 J60 HVE GGAPP CHOWW4
Aircraft A321/M-SDE3FGHIRWY/LB1

Departure

Time 2026-05-07 07:14
Airport Detroit Metropolitan Wayne County Airport (KDTW)

Arrival

Time 2026-05-07 11:13
Airport Harry Reid International Airport (KLAS)
Time Latitude Longitude Altitude Speed Heading
2026-05-07 06:47 42.21264 -83.35551 650 ft 0 kts 120°
2026-05-07 07:04 42.21270 -83.35566 649 ft 4 kts 120°
2026-05-07 07:04 42.21284 -83.35597 650 ft 4 kts 120°
2026-05-07 07:04 42.21297 -83.35629 651 ft 4 kts 120°
2026-05-07 07:04 42.21309 -83.35656 649 ft 1 kts 120°
2026-05-07 07:06 42.21309 -83.35655 649 ft 1 kts 120°
2026-05-07 07:06 42.21285 -83.35645 649 ft 7 kts 194°
2026-05-07 07:07 42.21234 -83.35700 650 ft 11 kts 213°
2026-05-07 07:07 42.21165 -83.35752 651 ft 12 kts 208°
2026-05-07 07:07 42.21077 -83.35817 650 ft 17 kts 209°
2026-05-07 07:07 42.20962 -83.35903 650 ft 21 kts 210°
2026-05-07 07:08 42.20825 -83.36003 649 ft 23 kts 210°
2026-05-07 07:08 42.20686 -83.36107 649 ft 23 kts 209°
2026-05-07 07:08 42.20548 -83.36207 649 ft 22 kts 208°
2026-05-07 07:08 42.20411 -83.36307 649 ft 22 kts 209°
2026-05-07 07:09 42.20274 -83.36397 649 ft 22 kts 195°
2026-05-07 07:09 42.20144 -83.36427 649 ft 13 kts 176°
2026-05-07 07:09 42.20093 -83.36337 649 ft 13 kts 99°
2026-05-07 07:09 42.20083 -83.36254 649 ft 14 kts 100°
2026-05-07 07:10 42.20069 -83.36127 649 ft 14 kts 93°
2026-05-07 07:10 42.20070 -83.35995 649 ft 15 kts 87°
2026-05-07 07:10 42.20073 -83.35850 649 ft 16 kts 89°
2026-05-07 07:10 42.20074 -83.35702 650 ft 16 kts 89°
2026-05-07 07:11 42.20078 -83.35502 649 ft 16 kts 88°
2026-05-07 07:11 42.20080 -83.35398 649 ft 16 kts 89°
2026-05-07 07:11 42.20055 -83.35254 651 ft 16 kts 127°
2026-05-07 07:11 42.19982 -83.35161 649 ft 13 kts 155°
2026-05-07 07:12 42.19897 -83.35187 650 ft 13 kts 208°
2026-05-07 07:12 42.19821 -83.35243 650 ft 12 kts 208°
2026-05-07 07:12 42.19744 -83.35299 650 ft 13 kts 208°
2026-05-07 07:12 42.19659 -83.35329 649 ft 13 kts 162°
2026-05-07 07:13 42.19613 -83.35258 650 ft 9 kts 118°
2026-05-07 07:13 42.19602 -83.35173 648 ft 10 kts 71°
2026-05-07 07:13 42.19650 -83.35113 648 ft 10 kts 30°
2026-05-07 07:13 42.19715 -83.35067 648 ft 12 kts 28°
2026-05-07 07:14 42.19958 -83.34888 646 ft 75 kts 28°
2026-05-07 07:14 42.20608 -83.34412 652 ft 135 kts 28°
2026-05-07 07:14 42.21589 -83.33693 682 ft 182 kts 27°
2026-05-07 07:14 42.22713 -83.32842 1279 ft 186 kts 26°
2026-05-07 07:15 42.23937 -83.32363 2004 ft 182 kts 359°
2026-05-07 07:15 42.25214 -83.32688 2228 ft 197 kts 338°
2026-05-07 07:15 42.26570 -83.33346 2372 ft 219 kts 339°
2026-05-07 07:15 42.28090 -83.34051 2561 ft 241 kts 340°
2026-05-07 07:16 42.29712 -83.34792 3100 ft 249 kts 339°
2026-05-07 07:16 42.31378 -83.35545 3715 ft 255 kts 339°
2026-05-07 07:16 42.33072 -83.36306 4374 ft 258 kts 339°
2026-05-07 07:16 42.34761 -83.37159 5021 ft 259 kts 327°
2026-05-07 07:17 42.36120 -83.38712 5672 ft 255 kts 303°
2026-05-07 07:17 42.36854 -83.40861 6368 ft 252 kts 279°
2026-05-07 07:17 42.37053 -83.43216 7050 ft 252 kts 274°
2026-05-07 07:17 42.37217 -83.45582 7746 ft 253 kts 274°
2026-05-07 07:18 42.37383 -83.47957 8432 ft 255 kts 274°
2026-05-07 07:18 42.37550 -83.50346 9126 ft 256 kts 274°
2026-05-07 07:18 42.37716 -83.52715 9818 ft 257 kts 274°
2026-05-07 07:18 42.37885 -83.55137 10331 ft 265 kts 274°
2026-05-07 07:19 42.38064 -83.57711 10460 ft 285 kts 274°
2026-05-07 07:19 42.38256 -83.60471 10591 ft 304 kts 275°
2026-05-07 07:19 42.38459 -83.63377 10905 ft 314 kts 275°
2026-05-07 07:19 42.38666 -83.66342 11453 ft 318 kts 275°
2026-05-07 07:20 42.38874 -83.69322 12069 ft 319 kts 275°
2026-05-07 07:20 42.39083 -83.72312 12702 ft 320 kts 275°
2026-05-07 07:20 42.39290 -83.75320 13333 ft 321 kts 275°
2026-05-07 07:20 42.39498 -83.78338 13947 ft 323 kts 275°
2026-05-07 07:21 42.39702 -83.81365 14499 ft 324 kts 275°
2026-05-07 07:21 42.39907 -83.84403 15033 ft 325 kts 275°
2026-05-07 07:21 42.40115 -83.87458 15606 ft 326 kts 274°
2026-05-07 07:21 42.40322 -83.90520 16152 ft 328 kts 274°
2026-05-07 07:22 42.40527 -83.93552 16707 ft 329 kts 274°
2026-05-07 07:22 42.40735 -83.96647 17236 ft 331 kts 274°
2026-05-07 07:22 42.40941 -83.99755 17787 ft 332 kts 274°
2026-05-07 07:22 42.41148 -84.02881 18318 ft 334 kts 274°
2026-05-07 07:23 42.41356 -84.06016 18785 ft 335 kts 274°
2026-05-07 07:23 42.41563 -84.09163 19261 ft 337 kts 274°
2026-05-07 07:23 42.41772 -84.12329 19740 ft 338 kts 274°
2026-05-07 07:23 42.41981 -84.15500 20221 ft 339 kts 274°
2026-05-07 07:24 42.42190 -84.18692 20676 ft 341 kts 273°
2026-05-07 07:24 42.42399 -84.21891 21122 ft 342 kts 273°
2026-05-07 07:24 42.42606 -84.25103 21561 ft 343 kts 273°
2026-05-07 07:24 42.42809 -84.28331 21984 ft 345 kts 273°
2026-05-07 07:25 42.43205 -84.34842 22764 ft 349 kts 272°
2026-05-07 07:25 42.43330 -84.38141 23135 ft 351 kts 271°
2026-05-07 07:25 42.43409 -84.41404 23521 ft 352 kts 270°
2026-05-07 07:26 42.43470 -84.44721 23852 ft 354 kts 270°
2026-05-07 07:26 42.43536 -84.48096 24199 ft 355 kts 270°
2026-05-07 07:26 42.43607 -84.51394 24546 ft 355 kts 270°
2026-05-07 07:26 42.43685 -84.54738 24883 ft 356 kts 270°
2026-05-07 07:27 42.43766 -84.58088 25224 ft 357 kts 270°
2026-05-07 07:27 42.43850 -84.61445 25557 ft 357 kts 270°
2026-05-07 07:27 42.43936 -84.64809 25891 ft 358 kts 270°
2026-05-07 07:27 42.44021 -84.68180 26216 ft 359 kts 270°
2026-05-07 07:28 42.44104 -84.71575 26470 ft 362 kts 270°
2026-05-07 07:28 42.44187 -84.74988 26748 ft 363 kts 270°
2026-05-07 07:28 42.44269 -84.78410 27045 ft 364 kts 270°
2026-05-07 07:28 42.44350 -84.81844 27337 ft 365 kts 269°
2026-05-07 07:29 42.44430 -84.85282 27626 ft 366 kts 269°
2026-05-07 07:29 42.44509 -84.88690 27910 ft 367 kts 269°
2026-05-07 07:29 42.44588 -84.92187 28200 ft 368 kts 269°
2026-05-07 07:29 42.44661 -84.95611 28482 ft 369 kts 269°
2026-05-07 07:30 42.44733 -84.99088 28767 ft 370 kts 269°
2026-05-07 07:30 42.44808 -85.02580 29052 ft 371 kts 269°
2026-05-07 07:30 42.44881 -85.06068 29461 ft 369 kts 269°
2026-05-07 07:30 42.44955 -85.09543 29794 ft 369 kts 269°
2026-05-07 07:31 42.45027 -85.13016 30143 ft 369 kts 269°
2026-05-07 07:31 42.45097 -85.16481 30430 ft 368 kts 269°
2026-05-07 07:31 42.45168 -85.19943 30706 ft 367 kts 269°
2026-05-07 07:31 42.45236 -85.23399 30969 ft 367 kts 269°
2026-05-07 07:32 42.45303 -85.26842 31224 ft 366 kts 269°
2026-05-07 07:32 42.45368 -85.30287 31473 ft 366 kts 269°
2026-05-07 07:32 42.45432 -85.33735 31723 ft 366 kts 269°
2026-05-07 07:32 42.45494 -85.37130 31964 ft 365 kts 269°
2026-05-07 07:33 42.45557 -85.40568 32214 ft 365 kts 269°
2026-05-07 07:33 42.45620 -85.44002 32437 ft 365 kts 269°
2026-05-07 07:33 42.45680 -85.47443 32655 ft 365 kts 269°
2026-05-07 07:33 42.45740 -85.50880 32870 ft 365 kts 269°
2026-05-07 07:34 42.45798 -85.54316 33093 ft 365 kts 269°
2026-05-07 07:34 42.45855 -85.57749 33323 ft 365 kts 269°
2026-05-07 07:34 42.45912 -85.61180 33539 ft 364 kts 269°
2026-05-07 07:34 42.45967 -85.64608 33769 ft 364 kts 269°
2026-05-07 07:35 42.46020 -85.68041 33964 ft 364 kts 268°
2026-05-07 07:35 42.46121 -85.74906 34017 ft 365 kts 268°
2026-05-07 07:36 42.46221 -85.81777 34016 ft 365 kts 268°
2026-05-07 07:36 42.46322 -85.88652 34027 ft 365 kts 268°
2026-05-07 07:37 42.46420 -85.95523 34032 ft 365 kts 268°
2026-05-07 07:37 42.46511 -86.02391 34031 ft 365 kts 268°
2026-05-07 07:38 42.46591 -86.09276 34031 ft 366 kts 268°
2026-05-07 07:38 42.46220 -86.16062 34037 ft 364 kts 260°
2026-05-07 07:39 42.45363 -86.22822 34041 ft 364 kts 260°
2026-05-07 07:39 42.44501 -86.29585 34040 ft 365 kts 260°
2026-05-07 07:40 42.43634 -86.36362 34040 ft 366 kts 259°
2026-05-07 07:40 42.42761 -86.43148 34043 ft 366 kts 260°
2026-05-07 07:41 42.41905 -86.49824 34048 ft 366 kts 259°
2026-05-07 07:41 42.41029 -86.56617 34058 ft 367 kts 259°
2026-05-07 07:42 42.40148 -86.63419 34061 ft 368 kts 259°
2026-05-07 07:42 42.39262 -86.70196 34061 ft 368 kts 259°
2026-05-07 07:43 42.38358 -86.77022 34066 ft 369 kts 259°
2026-05-07 07:43 42.37451 -86.83858 34064 ft 369 kts 259°
2026-05-07 07:44 42.36543 -86.90695 34063 ft 369 kts 259°
2026-05-07 07:44 42.35634 -86.97529 34063 ft 368 kts 259°
2026-05-07 07:45 42.34717 -87.04337 34070 ft 368 kts 259°
2026-05-07 07:45 42.33804 -87.11131 34072 ft 367 kts 259°
2026-05-07 07:46 42.32890 -87.17907 34075 ft 366 kts 259°
2026-05-07 07:46 42.31975 -87.24639 34075 ft 367 kts 259°
2026-05-07 07:47 42.31042 -87.31459 34075 ft 367 kts 259°
2026-05-07 07:47 42.30109 -87.38239 34087 ft 367 kts 259°
2026-05-07 07:48 42.29181 -87.44994 34076 ft 369 kts 259°
2026-05-07 07:48 42.28238 -87.51804 34073 ft 369 kts 259°
2026-05-07 07:49 42.27292 -87.58623 34075 ft 370 kts 259°
2026-05-07 07:49 42.26341 -87.65448 34073 ft 370 kts 259°
2026-05-07 07:50 42.25385 -87.72260 34080 ft 370 kts 259°
2026-05-07 07:50 42.24421 -87.79079 34070 ft 370 kts 259°
2026-05-07 07:51 42.23450 -87.85913 34070 ft 371 kts 259°
2026-05-07 07:51 42.22478 -87.92756 34070 ft 371 kts 259°
2026-05-07 07:52 42.21432 -87.99577 34074 ft 372 kts 257°
2026-05-07 07:52 42.20235 -88.06319 34077 ft 372 kts 256°
2026-05-07 07:53 42.19009 -88.13099 34081 ft 372 kts 256°
2026-05-07 07:53 42.17803 -88.19895 34065 ft 373 kts 257°
2026-05-07 07:54 42.16598 -88.26696 34080 ft 372 kts 257°
2026-05-07 07:54 42.15395 -88.33479 34091 ft 372 kts 256°
2026-05-07 07:55 42.14192 -88.40266 34094 ft 372 kts 257°
2026-05-07 07:55 42.12989 -88.47045 34099 ft 372 kts 256°
2026-05-07 07:56 42.11771 -88.53821 34099 ft 373 kts 256°
2026-05-07 07:56 42.10547 -88.60602 34097 ft 373 kts 256°
2026-05-07 07:57 42.09331 -88.67347 34097 ft 373 kts 256°
2026-05-07 07:57 42.08101 -88.74144 34097 ft 374 kts 256°
2026-05-07 07:58 42.06864 -88.80933 34099 ft 374 kts 256°
2026-05-07 07:58 42.05620 -88.87726 34101 ft 374 kts 256°
2026-05-07 07:59 42.04369 -88.94532 34099 ft 375 kts 256°
2026-05-07 07:59 42.03118 -89.01364 34100 ft 376 kts 256°
2026-05-07 08:00 42.01859 -89.08196 34093 ft 377 kts 256°
2026-05-07 08:00 42.00598 -89.14991 34096 ft 377 kts 256°
2026-05-07 08:01 41.99326 -89.21829 34103 ft 377 kts 256°
2026-05-07 08:01 41.98047 -89.28676 34061 ft 378 kts 256°
2026-05-07 08:02 41.96766 -89.35509 34086 ft 377 kts 256°
2026-05-07 08:02 41.95700 -89.41185 34096 ft 377 kts 256°
2026-05-07 08:03 41.94416 -89.48012 34106 ft 376 kts 256°
2026-05-07 08:03 41.93127 -89.54826 34108 ft 376 kts 256°
2026-05-07 08:04 41.91832 -89.61634 34110 ft 376 kts 256°
2026-05-07 08:04 41.90538 -89.68439 34106 ft 376 kts 256°
2026-05-07 08:05 41.89250 -89.75196 34107 ft 376 kts 256°
2026-05-07 08:05 41.87944 -89.82000 34110 ft 376 kts 256°
2026-05-07 08:06 41.86638 -89.88804 34112 ft 376 kts 256°
2026-05-07 08:06 41.85325 -89.95596 34116 ft 376 kts 256°
2026-05-07 08:07 41.84001 -90.02388 34098 ft 377 kts 256°
2026-05-07 08:07 41.82677 -90.09195 34083 ft 378 kts 256°
2026-05-07 08:08 41.81344 -90.16021 34081 ft 379 kts 256°
2026-05-07 08:08 41.80006 -90.22869 34082 ft 380 kts 256°
2026-05-07 08:09 41.78663 -90.29714 34086 ft 380 kts 256°
2026-05-07 08:09 41.77311 -90.36566 34043 ft 380 kts 256°
2026-05-07 08:10 41.75953 -90.43408 34074 ft 380 kts 256°
2026-05-07 08:10 41.74601 -90.50214 34077 ft 380 kts 256°
2026-05-07 08:11 41.73241 -90.57047 34080 ft 380 kts 256°
2026-05-07 08:11 41.71883 -90.63882 34082 ft 380 kts 256°
2026-05-07 08:12 41.70515 -90.70711 34085 ft 380 kts 256°
2026-05-07 08:12 41.69140 -90.77537 34095 ft 380 kts 256°
2026-05-07 08:13 41.67760 -90.84365 34097 ft 380 kts 256°
2026-05-07 08:13 41.66372 -90.91196 34097 ft 381 kts 256°
2026-05-07 08:14 41.64992 -90.97985 34101 ft 381 kts 256°
2026-05-07 08:14 41.63602 -91.04819 34101 ft 381 kts 256°
2026-05-07 08:15 41.62202 -91.11648 34099 ft 381 kts 256°
2026-05-07 08:15 41.60799 -91.18480 34105 ft 381 kts 256°
2026-05-07 08:16 41.59395 -91.25304 34104 ft 380 kts 256°
2026-05-07 08:16 41.57988 -91.32108 34102 ft 380 kts 256°
2026-05-07 08:17 41.56592 -91.38858 34098 ft 379 kts 256°
2026-05-07 08:17 41.55178 -91.45643 34061 ft 379 kts 256°
2026-05-07 08:18 41.53758 -91.52412 34087 ft 379 kts 256°
2026-05-07 08:18 41.52344 -91.59177 34084 ft 378 kts 256°
2026-05-07 08:19 41.51462 -91.66057 34099 ft 376 kts 263°
2026-05-07 08:19 41.50814 -91.72980 34099 ft 376 kts 263°
2026-05-07 08:20 41.50156 -91.79890 34098 ft 376 kts 263°
2026-05-07 08:20 41.49502 -91.86803 34097 ft 375 kts 263°
2026-05-07 08:21 41.48846 -91.93708 34092 ft 375 kts 263°
2026-05-07 08:21 41.48179 -92.00616 34089 ft 376 kts 263°
2026-05-07 08:22 41.47512 -92.07524 34092 ft 376 kts 263°
2026-05-07 08:22 41.46849 -92.14394 34088 ft 376 kts 263°
2026-05-07 08:23 41.46170 -92.21310 34088 ft 376 kts 263°
2026-05-07 08:23 41.45488 -92.28220 34091 ft 376 kts 263°
2026-05-07 08:24 41.44801 -92.35146 34073 ft 377 kts 263°
2026-05-07 08:24 41.44105 -92.42074 34077 ft 377 kts 263°
2026-05-07 08:25 41.43409 -92.49009 34081 ft 378 kts 263°
2026-05-07 08:25 41.42715 -92.55947 34082 ft 378 kts 263°
2026-05-07 08:26 41.41654 -92.66307 34084 ft 378 kts 263°
2026-05-07 08:26 41.40944 -92.73243 34062 ft 378 kts 263°
2026-05-07 08:27 41.40230 -92.80189 34069 ft 379 kts 263°
2026-05-07 08:27 41.39509 -92.87135 34065 ft 379 kts 263°
2026-05-07 08:28 41.38781 -92.94086 34068 ft 379 kts 263°
2026-05-07 08:28 41.38051 -93.01032 34069 ft 379 kts 263°
2026-05-07 08:29 41.37321 -93.07982 34049 ft 379 kts 263°
2026-05-07 08:29 41.36576 -93.14934 34045 ft 380 kts 263°
2026-05-07 08:30 41.35830 -93.21899 34045 ft 380 kts 263°
2026-05-07 08:30 41.35079 -93.28871 34051 ft 381 kts 263°
2026-05-07 08:31 41.34320 -93.35843 34057 ft 381 kts 263°
2026-05-07 08:31 41.33559 -93.42823 34063 ft 381 kts 263°
2026-05-07 08:32 41.32801 -93.49758 34066 ft 381 kts 263°
2026-05-07 08:32 41.32031 -93.56733 34072 ft 381 kts 263°
2026-05-07 08:33 41.31260 -93.63714 34068 ft 381 kts 263°
2026-05-07 08:33 41.30481 -93.70688 34073 ft 381 kts 263°
2026-05-07 08:34 41.29700 -93.77668 34074 ft 381 kts 263°
2026-05-07 08:34 41.28916 -93.84645 34047 ft 382 kts 263°
2026-05-07 08:35 41.28122 -93.91631 34007 ft 383 kts 263°
2026-05-07 08:35 41.27324 -93.98633 34037 ft 383 kts 263°
2026-05-07 08:36 41.26527 -94.05640 34052 ft 383 kts 263°
2026-05-07 08:36 41.25722 -94.12653 34057 ft 383 kts 263°
2026-05-07 08:37 41.24899 -94.19650 34030 ft 383 kts 263°
2026-05-07 08:37 41.24084 -94.26611 34035 ft 384 kts 263°
2026-05-07 08:38 41.23266 -94.33633 34040 ft 385 kts 263°
2026-05-07 08:38 41.22442 -94.40664 34046 ft 385 kts 263°
2026-05-07 08:39 41.21611 -94.47701 34049 ft 385 kts 263°
2026-05-07 08:39 41.20767 -94.54735 34053 ft 385 kts 263°
2026-05-07 08:40 41.19927 -94.61773 34036 ft 386 kts 263°
2026-05-07 08:40 41.19081 -94.68819 34040 ft 387 kts 263°
2026-05-07 08:41 41.18230 -94.75834 34038 ft 388 kts 263°
2026-05-07 08:41 41.17372 -94.82900 34041 ft 388 kts 263°
2026-05-07 08:42 41.16513 -94.89975 34043 ft 388 kts 263°
2026-05-07 08:42 41.15644 -94.97049 34023 ft 389 kts 263°
2026-05-07 08:43 41.14763 -95.04140 34032 ft 390 kts 263°
2026-05-07 08:43 41.13884 -95.11251 34045 ft 391 kts 263°
2026-05-07 08:44 41.13001 -95.18376 34040 ft 391 kts 263°
2026-05-07 08:44 41.12099 -95.25499 34044 ft 392 kts 263°
2026-05-07 08:45 41.11198 -95.32618 34045 ft 392 kts 263°
2026-05-07 08:45 41.10298 -95.39739 34016 ft 392 kts 264°
2026-05-07 08:46 41.09391 -95.46892 34024 ft 393 kts 264°
2026-05-07 08:46 41.08472 -95.54054 34033 ft 394 kts 264°
2026-05-07 08:47 41.07556 -95.61174 34041 ft 394 kts 263°
2026-05-07 08:47 41.06629 -95.68336 34032 ft 395 kts 263°
2026-05-07 08:48 41.05696 -95.75506 34001 ft 395 kts 264°
2026-05-07 08:48 41.04759 -95.82692 34002 ft 396 kts 264°
2026-05-07 08:49 41.03814 -95.89892 34001 ft 397 kts 264°
2026-05-07 08:49 41.02857 -95.97094 34024 ft 397 kts 264°
2026-05-07 08:50 41.01900 -96.04300 34034 ft 398 kts 264°
2026-05-07 08:50 41.00931 -96.11520 34004 ft 398 kts 264°
2026-05-07 08:51 40.99964 -96.18737 34009 ft 399 kts 264°
2026-05-07 08:51 40.99019 -96.25781 34018 ft 400 kts 264°
2026-05-07 08:52 40.98043 -96.33027 34028 ft 400 kts 264°
2026-05-07 08:52 40.97058 -96.40272 34039 ft 400 kts 264°
2026-05-07 08:53 40.96067 -96.47518 34023 ft 400 kts 264°
2026-05-07 08:53 40.95240 -96.53555 34027 ft 401 kts 264°
2026-05-07 08:54 40.94235 -96.60822 33991 ft 402 kts 264°
2026-05-07 08:54 40.93225 -96.68126 34054 ft 404 kts 263°
2026-05-07 08:55 40.92213 -96.75446 34057 ft 404 kts 264°
2026-05-07 08:55 40.91458 -96.82792 34065 ft 403 kts 267°
2026-05-07 08:56 40.90840 -96.90152 34041 ft 403 kts 268°
2026-05-07 08:56 40.90189 -96.97518 34042 ft 404 kts 267°
2026-05-07 08:57 40.89487 -97.04893 34046 ft 405 kts 267°
2026-05-07 08:57 40.88766 -97.12230 34050 ft 405 kts 267°
2026-05-07 08:58 40.88039 -97.19620 34057 ft 405 kts 267°
2026-05-07 08:58 40.87317 -97.27004 34062 ft 405 kts 267°
2026-05-07 08:59 40.86592 -97.34396 34064 ft 406 kts 267°
2026-05-07 08:59 40.85856 -97.41797 34067 ft 406 kts 267°
2026-05-07 09:00 40.85118 -97.49186 34068 ft 406 kts 267°
2026-05-07 09:00 40.84373 -97.56583 34033 ft 406 kts 267°
2026-05-07 09:01 40.83627 -97.63963 33999 ft 406 kts 267°
2026-05-07 09:01 40.82873 -97.71361 34006 ft 407 kts 267°
2026-05-07 09:02 40.82112 -97.78773 34020 ft 407 kts 267°
2026-05-07 09:02 40.81345 -97.86184 34016 ft 408 kts 267°
2026-05-07 09:03 40.80576 -97.93554 34014 ft 408 kts 267°
2026-05-07 09:03 40.79804 -98.00973 34004 ft 408 kts 268°
2026-05-07 09:04 40.79031 -98.08388 34014 ft 408 kts 268°
2026-05-07 09:04 40.78244 -98.15824 34028 ft 408 kts 268°
2026-05-07 09:05 40.77454 -98.23239 34052 ft 408 kts 268°
2026-05-07 09:05 40.76651 -98.30664 34050 ft 408 kts 268°
2026-05-07 09:06 40.75844 -98.38082 34008 ft 408 kts 268°
2026-05-07 09:06 40.75043 -98.45499 34043 ft 408 kts 268°
2026-05-07 09:07 40.74240 -98.52911 34052 ft 409 kts 268°
2026-05-07 09:07 40.73435 -98.60279 34054 ft 409 kts 268°
2026-05-07 09:08 40.72613 -98.67694 34055 ft 409 kts 268°
2026-05-07 09:08 40.71785 -98.75106 34020 ft 408 kts 268°
2026-05-07 09:09 40.70955 -98.82518 34023 ft 408 kts 268°
2026-05-07 09:09 40.70122 -98.89918 34027 ft 408 kts 268°
2026-05-07 09:10 40.69280 -98.97318 34033 ft 408 kts 268°
2026-05-07 09:10 40.68437 -99.04725 34037 ft 408 kts 268°
2026-05-07 09:11 40.67594 -99.12116 34020 ft 408 kts 268°
2026-05-07 09:11 40.66752 -99.19457 34034 ft 408 kts 268°
2026-05-07 09:12 40.65885 -99.26886 34048 ft 408 kts 268°
2026-05-07 09:12 40.65033 -99.34221 34054 ft 408 kts 268°
2026-05-07 09:13 40.64170 -99.41596 34070 ft 408 kts 268°
2026-05-07 09:13 40.63291 -99.48987 34035 ft 408 kts 267°
2026-05-07 09:14 40.62412 -99.56361 34042 ft 408 kts 267°
2026-05-07 09:14 40.61543 -99.63751 34051 ft 408 kts 267°
2026-05-07 09:15 40.60659 -99.71136 34058 ft 408 kts 267°
2026-05-07 09:15 40.59762 -99.78516 34062 ft 409 kts 267°
2026-05-07 09:16 40.58863 -99.85894 34033 ft 409 kts 267°
2026-05-07 09:16 40.57971 -99.93238 34039 ft 409 kts 266°
2026-05-07 09:17 40.57060 -100.00677 34048 ft 410 kts 266°
2026-05-07 09:17 40.56149 -100.08074 34063 ft 410 kts 266°
2026-05-07 09:18 40.55234 -100.15467 34058 ft 410 kts 266°
2026-05-07 09:18 40.54309 -100.22859 34040 ft 410 kts 266°
2026-05-07 09:19 40.53389 -100.30211 34041 ft 410 kts 266°
2026-05-07 09:19 40.52454 -100.37627 34055 ft 411 kts 266°
2026-05-07 09:20 40.51517 -100.45049 34062 ft 411 kts 266°
2026-05-07 09:20 40.50572 -100.52459 34068 ft 411 kts 266°
2026-05-07 09:21 40.49622 -100.59868 34044 ft 412 kts 266°
2026-05-07 09:21 40.48666 -100.67282 34052 ft 412 kts 266°
2026-05-07 09:22 40.47712 -100.74711 34058 ft 412 kts 265°
2026-05-07 09:22 40.46748 -100.82135 34064 ft 413 kts 265°
2026-05-07 09:23 40.45771 -100.89565 34073 ft 413 kts 265°
2026-05-07 09:23 40.44791 -100.96935 34076 ft 413 kts 265°
2026-05-07 09:24 40.43792 -101.04362 34073 ft 413 kts 265°
2026-05-07 09:24 40.42785 -101.11786 34076 ft 413 kts 265°
2026-05-07 09:25 40.41775 -101.19213 34081 ft 413 kts 265°
2026-05-07 09:25 40.40756 -101.26623 34069 ft 413 kts 265°
2026-05-07 09:26 40.39738 -101.34035 34029 ft 413 kts 265°
2026-05-07 09:26 40.38718 -101.41448 34032 ft 413 kts 265°
2026-05-07 09:27 40.37683 -101.48858 34038 ft 413 kts 265°
2026-05-07 09:28 40.36135 -101.59935 34043 ft 413 kts 264°
2026-05-07 09:28 40.35096 -101.67345 34048 ft 413 kts 264°
2026-05-07 09:29 40.34050 -101.74765 34029 ft 413 kts 264°
2026-05-07 09:29 40.32993 -101.82176 34042 ft 414 kts 264°
2026-05-07 09:30 40.31936 -101.89588 34053 ft 414 kts 264°
2026-05-07 09:30 40.30879 -101.96999 34067 ft 414 kts 264°
2026-05-07 09:31 40.29814 -102.04401 34041 ft 414 kts 264°
2026-05-07 09:31 40.28742 -102.11804 34051 ft 414 kts 264°
2026-05-07 09:32 40.27666 -102.19177 34061 ft 415 kts 264°
2026-05-07 09:32 40.26568 -102.26648 34077 ft 415 kts 264°
2026-05-07 09:33 40.25488 -102.34018 34074 ft 415 kts 264°
2026-05-07 09:33 40.24398 -102.41437 34057 ft 415 kts 264°
2026-05-07 09:34 40.23303 -102.48848 34047 ft 415 kts 264°
2026-05-07 09:34 40.22198 -102.56279 34049 ft 416 kts 263°
2026-05-07 09:35 40.21082 -102.63727 34045 ft 417 kts 263°
2026-05-07 09:35 40.19960 -102.71174 34058 ft 418 kts 263°
2026-05-07 09:36 40.18839 -102.78634 34046 ft 418 kts 263°
2026-05-07 09:36 40.17712 -102.86091 34059 ft 418 kts 263°
2026-05-07 09:37 40.16577 -102.93555 34068 ft 418 kts 263°
2026-05-07 09:37 40.15431 -103.01011 34070 ft 418 kts 263°
2026-05-07 09:38 40.14281 -103.08464 34073 ft 418 kts 263°
2026-05-07 09:38 40.13132 -103.15926 34032 ft 418 kts 263°
2026-05-07 09:39 40.11989 -103.23330 34039 ft 419 kts 263°
2026-05-07 09:39 40.10826 -103.30784 34038 ft 419 kts 263°
2026-05-07 09:40 40.09650 -103.38257 34058 ft 420 kts 263°
2026-05-07 09:40 40.08472 -103.45729 34080 ft 420 kts 263°
2026-05-07 09:41 40.07291 -103.53198 34067 ft 420 kts 263°
2026-05-07 09:41 40.06108 -103.60681 34078 ft 421 kts 263°
2026-05-07 09:42 40.05124 -103.66922 34087 ft 421 kts 263°
2026-05-07 09:42 40.03737 -103.75630 34095 ft 422 kts 263°
2026-05-07 09:43 40.02730 -103.81909 34099 ft 422 kts 263°
2026-05-07 09:43 40.01522 -103.89404 34067 ft 422 kts 263°
2026-05-07 09:44 40.00313 -103.96853 34073 ft 423 kts 263°
2026-05-07 09:44 39.99088 -104.04364 34083 ft 423 kts 263°
2026-05-07 09:45 39.97868 -104.11872 34083 ft 424 kts 263°
2026-05-07 09:45 39.96637 -104.19398 34090 ft 424 kts 263°
2026-05-07 09:46 39.95396 -104.26913 34075 ft 425 kts 263°
2026-05-07 09:46 39.94145 -104.34448 34083 ft 426 kts 263°
2026-05-07 09:47 39.92897 -104.41949 34096 ft 427 kts 263°
2026-05-07 09:47 39.91633 -104.49510 34107 ft 427 kts 263°
2026-05-07 09:48 39.90367 -104.57073 34100 ft 427 kts 263°
2026-05-07 09:48 39.89084 -104.64629 34102 ft 428 kts 262°
2026-05-07 09:49 39.87664 -104.72161 34104 ft 429 kts 261°
2026-05-07 09:49 39.86194 -104.79682 34106 ft 429 kts 261°
2026-05-07 09:50 39.84748 -104.87152 34103 ft 428 kts 261°
2026-05-07 09:50 39.83306 -104.94669 34081 ft 429 kts 261°
2026-05-07 09:51 39.81860 -105.02201 34093 ft 430 kts 261°
2026-05-07 09:51 39.80396 -105.09755 34101 ft 431 kts 261°
2026-05-07 09:52 39.78925 -105.17320 34110 ft 431 kts 261°
2026-05-07 09:52 39.77443 -105.24878 34123 ft 432 kts 261°
2026-05-07 09:53 39.75954 -105.32433 34130 ft 431 kts 261°
2026-05-07 09:53 39.74481 -105.39930 34154 ft 430 kts 261°
2026-05-07 09:54 39.73008 -105.47454 34161 ft 429 kts 261°
2026-05-07 09:54 39.71521 -105.54962 34203 ft 429 kts 261°
2026-05-07 09:55 39.70022 -105.62450 34203 ft 428 kts 261°
2026-05-07 09:55 39.68534 -105.69893 34203 ft 428 kts 260°
2026-05-07 09:56 39.67044 -105.77322 34209 ft 428 kts 260°
2026-05-07 09:56 39.65540 -105.84805 34253 ft 429 kts 260°
2026-05-07 09:57 39.64029 -105.92286 34260 ft 428 kts 260°
2026-05-07 09:57 39.62521 -105.99752 34248 ft 428 kts 260°
2026-05-07 09:58 39.61006 -106.07221 34259 ft 429 kts 259°
2026-05-07 09:58 39.59480 -106.14706 34268 ft 430 kts 259°
2026-05-07 09:59 39.57943 -106.22216 34279 ft 431 kts 259°
2026-05-07 09:59 39.56405 -106.29694 34292 ft 432 kts 259°
2026-05-07 10:00 39.54853 -106.37218 34296 ft 432 kts 259°
2026-05-07 10:00 39.53296 -106.44751 34308 ft 432 kts 259°
2026-05-07 10:01 39.51735 -106.52264 34321 ft 432 kts 259°
2026-05-07 10:01 39.50171 -106.59775 34322 ft 432 kts 259°
2026-05-07 10:02 39.48603 -106.67282 34330 ft 432 kts 259°
2026-05-07 10:02 39.47027 -106.74793 34316 ft 432 kts 259°
2026-05-07 10:03 39.45446 -106.82298 34301 ft 432 kts 259°
2026-05-07 10:03 39.43860 -106.89803 34322 ft 433 kts 259°
2026-05-07 10:04 39.42088 -106.97259 34309 ft 434 kts 257°
2026-05-07 10:04 39.40186 -107.04628 34311 ft 434 kts 256°
2026-05-07 10:05 39.38285 -107.12039 34277 ft 435 kts 257°
2026-05-07 10:05 39.36449 -107.19489 34274 ft 434 kts 258°
2026-05-07 10:06 39.34624 -107.26943 34275 ft 436 kts 257°
2026-05-07 10:06 39.32691 -107.34370 34273 ft 436 kts 256°
2026-05-07 10:07 39.30769 -107.41786 34247 ft 436 kts 257°
2026-05-07 10:07 39.28874 -107.49213 34247 ft 435 kts 257°
2026-05-07 10:08 39.27009 -107.56589 34255 ft 436 kts 257°
2026-05-07 10:08 39.25116 -107.64013 34252 ft 436 kts 257°
2026-05-07 10:09 39.23202 -107.71438 34251 ft 436 kts 256°
2026-05-07 10:09 39.21281 -107.78856 34217 ft 436 kts 256°
2026-05-07 10:10 39.19367 -107.86271 34224 ft 436 kts 256°
2026-05-07 10:10 39.17445 -107.93692 34212 ft 436 kts 256°
2026-05-07 10:11 39.15514 -108.01112 34216 ft 437 kts 256°
2026-05-07 10:11 39.13578 -108.08525 34214 ft 437 kts 256°
2026-05-07 10:12 39.11650 -108.15894 34223 ft 437 kts 256°
2026-05-07 10:12 39.09701 -108.23308 34230 ft 437 kts 256°
2026-05-07 10:13 39.07750 -108.30717 34242 ft 437 kts 256°
2026-05-07 10:13 39.05797 -108.38129 34247 ft 437 kts 256°
2026-05-07 10:14 39.03835 -108.45538 34242 ft 437 kts 256°
2026-05-07 10:14 39.01871 -108.52937 34249 ft 437 kts 256°
2026-05-07 10:15 38.99903 -108.60342 34246 ft 438 kts 256°
2026-05-07 10:15 38.97930 -108.67746 34238 ft 438 kts 256°
2026-05-07 10:16 38.95948 -108.75147 34197 ft 438 kts 256°
2026-05-07 10:16 38.93957 -108.82546 34178 ft 438 kts 256°
2026-05-07 10:17 38.91958 -108.89956 34182 ft 439 kts 256°
2026-05-07 10:17 38.89964 -108.97361 34177 ft 439 kts 256°
2026-05-07 10:18 38.87963 -109.04768 34185 ft 440 kts 255°
2026-05-07 10:18 38.85942 -109.12177 34169 ft 440 kts 255°
2026-05-07 10:19 38.83916 -109.19593 34175 ft 440 kts 255°
2026-05-07 10:19 38.81908 -109.26955 34185 ft 441 kts 255°
2026-05-07 10:20 38.79878 -109.34367 34190 ft 441 kts 255°
2026-05-07 10:20 38.77848 -109.41788 34196 ft 441 kts 255°
2026-05-07 10:21 38.75800 -109.49206 34178 ft 441 kts 255°
2026-05-07 10:21 38.73740 -109.56629 34180 ft 442 kts 255°
2026-05-07 10:22 38.71684 -109.64049 34179 ft 442 kts 255°
2026-05-07 10:22 38.69626 -109.71468 34227 ft 442 kts 255°
2026-05-07 10:23 38.67562 -109.78879 34234 ft 442 kts 255°
2026-05-07 10:23 38.65496 -109.86288 34174 ft 442 kts 255°
2026-05-07 10:24 38.63414 -109.93701 34168 ft 443 kts 255°
2026-05-07 10:24 38.61338 -110.01065 34171 ft 443 kts 255°
2026-05-07 10:25 38.59247 -110.08479 34173 ft 443 kts 255°
2026-05-07 10:25 38.57160 -110.15885 34161 ft 443 kts 255°
2026-05-07 10:26 38.55061 -110.23287 34160 ft 443 kts 255°
2026-05-07 10:26 38.52954 -110.30696 34162 ft 444 kts 254°
2026-05-07 10:27 38.50844 -110.38105 34159 ft 444 kts 254°
2026-05-07 10:27 38.48727 -110.45511 34162 ft 444 kts 254°
2026-05-07 10:28 38.46603 -110.52905 34151 ft 444 kts 254°
2026-05-07 10:28 38.44469 -110.60298 34154 ft 444 kts 254°
2026-05-07 10:29 38.42313 -110.67680 34254 ft 446 kts 250°
2026-05-07 10:29 38.39029 -110.74398 34253 ft 454 kts 236°
2026-05-07 10:30 38.33225 -110.83957 34218 ft 455 kts 236°
2026-05-07 10:30 38.29358 -110.90338 34191 ft 456 kts 236°
2026-05-07 10:31 38.25485 -110.96738 34169 ft 456 kts 236°
2026-05-07 10:31 38.21605 -111.03132 34130 ft 457 kts 236°
2026-05-07 10:32 38.17705 -111.09525 34125 ft 457 kts 236°
2026-05-07 10:32 38.13805 -111.15914 34101 ft 457 kts 236°
2026-05-07 10:33 38.09928 -111.22267 34114 ft 458 kts 236°
2026-05-07 10:33 38.06016 -111.28657 34106 ft 459 kts 236°
2026-05-07 10:34 38.02089 -111.35044 34086 ft 460 kts 235°
2026-05-07 10:34 37.98150 -111.41435 34096 ft 461 kts 235°
2026-05-07 10:35 37.94199 -111.47850 34102 ft 461 kts 235°
2026-05-07 10:35 37.90888 -111.53217 34103 ft 462 kts 235°
2026-05-07 10:36 37.86919 -111.59621 34111 ft 462 kts 235°
2026-05-07 10:36 37.82950 -111.66021 34121 ft 462 kts 235°
2026-05-07 10:37 37.79007 -111.72381 34082 ft 461 kts 235°
2026-05-07 10:37 37.77041 -111.75543 33811 ft 454 kts 235°
2026-05-07 10:37 37.75098 -111.78660 33566 ft 448 kts 235°
2026-05-07 10:38 37.73175 -111.81745 33321 ft 446 kts 235°
2026-05-07 10:38 37.71254 -111.84823 33071 ft 445 kts 234°
2026-05-07 10:38 37.69340 -111.87886 32828 ft 444 kts 234°
2026-05-07 10:38 37.67435 -111.90939 32585 ft 442 kts 234°
2026-05-07 10:39 37.65535 -111.93990 32352 ft 440 kts 234°
2026-05-07 10:39 37.63648 -111.97015 32238 ft 437 kts 234°
2026-05-07 10:39 37.59867 -112.03047 32284 ft 438 kts 234°
2026-05-07 10:40 37.56071 -112.09078 32274 ft 439 kts 234°
2026-05-07 10:40 37.52431 -112.15171 32241 ft 436 kts 240°
2026-05-07 10:41 37.49123 -112.21591 32212 ft 437 kts 240°
2026-05-07 10:41 37.45793 -112.28012 32181 ft 437 kts 239°
2026-05-07 10:42 37.42463 -112.34423 32141 ft 437 kts 239°
2026-05-07 10:42 37.39133 -112.40829 32101 ft 437 kts 239°
2026-05-07 10:43 37.35798 -112.47233 32103 ft 438 kts 239°
2026-05-07 10:43 37.32455 -112.53643 32092 ft 438 kts 239°
2026-05-07 10:44 37.29115 -112.60048 32100 ft 439 kts 239°
2026-05-07 10:44 37.25768 -112.66447 32098 ft 438 kts 239°
2026-05-07 10:45 37.22433 -112.72797 32096 ft 438 kts 239°
2026-05-07 10:45 37.19073 -112.79181 32131 ft 438 kts 239°
2026-05-07 10:46 37.17393 -112.82370 32154 ft 439 kts 239°
2026-05-07 10:48 37.15057 -112.86739 32182 ft 439 kts 238°
2026-05-07 10:49 37.11688 -112.93124 32207 ft 439 kts 239°
2026-05-07 10:49 37.08332 -112.99505 32237 ft 439 kts 239°
2026-05-07 10:50 37.05527 -113.04817 32070 ft 439 kts 238°
2026-05-07 10:50 37.03846 -113.07993 31831 ft 437 kts 238°
2026-05-07 10:50 37.02170 -113.11152 31576 ft 435 kts 238°
2026-05-07 10:51 37.00501 -113.14293 31324 ft 432 kts 239°
2026-05-07 10:51 36.98297 -113.18433 30982 ft 430 kts 238°
2026-05-07 10:51 36.96643 -113.21535 30723 ft 428 kts 238°
2026-05-07 10:51 36.95529 -113.23621 30553 ft 427 kts 238°
2026-05-07 10:52 36.93883 -113.26702 30303 ft 425 kts 238°
2026-05-07 10:52 36.92243 -113.29766 30017 ft 423 kts 238°
2026-05-07 10:52 36.90635 -113.32768 29721 ft 421 kts 238°
2026-05-07 10:52 36.89021 -113.35784 29377 ft 415 kts 238°
2026-05-07 10:53 36.87421 -113.38775 28906 ft 412 kts 238°
2026-05-07 10:53 36.85836 -113.41737 28472 ft 409 kts 238°
2026-05-07 10:53 36.84259 -113.44675 28079 ft 406 kts 238°
2026-05-07 10:53 36.82689 -113.47586 27682 ft 403 kts 238°
2026-05-07 10:54 36.81125 -113.50483 27269 ft 401 kts 238°
2026-05-07 10:54 36.79581 -113.53361 26874 ft 398 kts 238°
2026-05-07 10:54 36.78050 -113.56227 26483 ft 395 kts 238°
2026-05-07 10:54 36.76534 -113.59067 26096 ft 392 kts 238°
2026-05-07 10:55 36.75026 -113.61885 25700 ft 390 kts 238°
2026-05-07 10:55 36.73522 -113.64688 25285 ft 387 kts 238°
2026-05-07 10:55 36.72029 -113.67469 24886 ft 385 kts 238°
2026-05-07 10:55 36.70541 -113.70234 24480 ft 383 kts 238°
2026-05-07 10:56 36.69058 -113.72982 24083 ft 381 kts 238°
2026-05-07 10:56 36.67579 -113.75719 23659 ft 379 kts 237°
2026-05-07 10:56 36.66107 -113.78441 23206 ft 377 kts 237°
2026-05-07 10:56 36.64650 -113.81139 22806 ft 374 kts 238°
2026-05-07 10:57 36.63204 -113.83812 22390 ft 371 kts 238°
2026-05-07 10:57 36.61770 -113.86465 21990 ft 368 kts 238°
2026-05-07 10:57 36.60344 -113.89099 21561 ft 365 kts 237°
2026-05-07 10:57 36.58930 -113.91708 21160 ft 363 kts 237°
2026-05-07 10:58 36.57469 -113.94257 20756 ft 360 kts 235°
2026-05-07 10:58 36.55957 -113.96731 20348 ft 359 kts 233°
2026-05-07 10:58 36.54421 -113.99164 19954 ft 357 kts 233°
2026-05-07 10:58 36.52901 -114.01550 19547 ft 356 kts 233°
2026-05-07 10:59 36.51370 -114.03963 19144 ft 354 kts 233°
2026-05-07 10:59 36.49851 -114.06376 18749 ft 354 kts 233°
2026-05-07 10:59 36.48343 -114.08784 18350 ft 353 kts 233°
2026-05-07 10:59 36.46843 -114.11194 17911 ft 351 kts 233°
2026-05-07 11:00 36.45351 -114.13596 17438 ft 351 kts 233°
2026-05-07 11:00 36.43864 -114.15990 17047 ft 349 kts 233°
2026-05-07 11:00 36.42385 -114.18364 16650 ft 347 kts 233°
2026-05-07 11:00 36.40912 -114.20723 16266 ft 345 kts 233°
2026-05-07 11:01 36.39447 -114.23067 15867 ft 343 kts 233°
2026-05-07 11:01 36.37977 -114.25403 15468 ft 342 kts 233°
2026-05-07 11:01 36.36511 -114.27711 15053 ft 341 kts 233°
2026-05-07 11:01 36.35047 -114.30004 14748 ft 337 kts 233°
2026-05-07 11:02 36.33600 -114.32264 14278 ft 333 kts 233°
2026-05-07 11:02 36.32166 -114.34504 13752 ft 328 kts 233°
2026-05-07 11:02 36.30755 -114.36708 13315 ft 326 kts 233°
2026-05-07 11:02 36.29344 -114.38909 12890 ft 326 kts 233°
2026-05-07 11:03 36.27938 -114.41107 12498 ft 324 kts 233°
2026-05-07 11:03 36.26545 -114.43285 12107 ft 323 kts 233°
2026-05-07 11:03 36.25161 -114.45449 11786 ft 319 kts 233°
2026-05-07 11:03 36.23766 -114.47606 11386 ft 318 kts 232°
2026-05-07 11:04 36.22378 -114.49733 10971 ft 318 kts 232°
2026-05-07 11:04 36.20996 -114.51846 10697 ft 313 kts 232°
2026-05-07 11:04 36.19623 -114.53941 10322 ft 312 kts 232°
2026-05-07 11:04 36.18266 -114.56012 9842 ft 309 kts 233°
2026-05-07 11:05 36.16939 -114.58037 9343 ft 303 kts 232°
2026-05-07 11:05 36.15619 -114.60059 8966 ft 302 kts 232°
2026-05-07 11:05 36.14305 -114.62075 8713 ft 299 kts 232°
2026-05-07 11:05 36.12996 -114.64080 8532 ft 300 kts 232°
2026-05-07 11:06 36.11688 -114.66077 8342 ft 296 kts 232°
2026-05-07 11:06 36.10415 -114.68018 8230 ft 286 kts 232°
2026-05-07 11:06 36.09184 -114.69893 8112 ft 274 kts 232°
2026-05-07 11:06 36.08053 -114.71740 7997 ft 267 kts 243°
2026-05-07 11:07 36.07406 -114.73861 7845 ft 264 kts 262°
2026-05-07 11:07 36.07317 -114.76093 7506 ft 259 kts 273°
2026-05-07 11:07 36.07339 -114.78325 7193 ft 259 kts 273°
2026-05-07 11:07 36.07343 -114.80545 6930 ft 258 kts 272°
2026-05-07 11:08 36.07341 -114.82747 6633 ft 254 kts 272°
2026-05-07 11:08 36.07344 -114.84916 6310 ft 251 kts 272°
2026-05-07 11:08 36.07348 -114.87061 5983 ft 248 kts 272°
2026-05-07 11:08 36.07352 -114.89177 5654 ft 244 kts 271°
2026-05-07 11:09 36.07355 -114.91262 5347 ft 241 kts 272°
2026-05-07 11:09 36.07357 -114.93292 5041 ft 238 kts 272°
2026-05-07 11:09 36.07360 -114.95311 4737 ft 233 kts 271°
2026-05-07 11:09 36.07362 -114.97306 4456 ft 231 kts 271°
2026-05-07 11:10 36.07363 -114.99237 4169 ft 219 kts 271°
2026-05-07 11:10 36.07364 -115.01061 3916 ft 205 kts 271°
2026-05-07 11:10 36.07364 -115.02758 3661 ft 191 kts 272°
2026-05-07 11:10 36.07365 -115.04336 3433 ft 178 kts 272°
2026-05-07 11:11 36.07365 -115.05820 3229 ft 165 kts 272°
2026-05-07 11:11 36.07365 -115.07199 2995 ft 159 kts 271°
2026-05-07 11:11 36.07366 -115.08542 2774 ft 154 kts 271°
2026-05-07 11:11 36.07366 -115.09859 2558 ft 152 kts 270°
2026-05-07 11:12 36.07372 -115.11158 2392 ft 149 kts 270°
2026-05-07 11:12 36.07366 -115.12432 2191 ft 147 kts 271°
2026-05-07 11:12 36.07366 -115.13642 2119 ft 126 kts 270°
2026-05-07 11:12 36.07366 -115.14516 2127 ft 77 kts 270°
2026-05-07 11:13 36.07366 -115.14994 2121 ft 38 kts 270°
2026-05-07 11:13 36.07368 -115.15202 2118 ft 20 kts 271°
2026-05-07 11:13 36.07405 -115.15360 2121 ft 18 kts 293°
2026-05-07 11:13 36.07460 -115.15487 2122 ft 10 kts 302°
2026-05-07 11:14 36.07496 -115.15560 2122 ft 10 kts 301°
2026-05-07 11:14 36.07540 -115.15625 2124 ft 10 kts 315°
2026-05-07 11:14 36.07594 -115.15692 2125 ft 14 kts 315°
2026-05-07 11:14 36.07679 -115.15793 2123 ft 18 kts 321°
2026-05-07 11:15 36.07801 -115.15825 2124 ft 17 kts 360°
2026-05-07 11:15 36.07869 -115.15789 2124 ft 12 kts 64°
2026-05-07 11:15 36.07876 -115.15662 2125 ft 16 kts 89°
2026-05-07 11:15 36.07877 -115.15523 2127 ft 16 kts 89°
2026-05-07 11:16 36.07878 -115.15390 2129 ft 16 kts 90°
2026-05-07 11:16 36.07877 -115.15251 2127 ft 17 kts 90°
2026-05-07 11:16 36.07876 -115.15090 2125 ft 20 kts 92°
2026-05-07 11:16 36.07864 -115.14917 2125 ft 21 kts 94°
2026-05-07 11:17 36.07928 -115.14829 2121 ft 18 kts 344°
2026-05-07 11:17 36.08048 -115.14871 2119 ft 17 kts
2026-05-07 11:17 36.08116 -115.14829 2117 ft 3 kts 54°
2026-05-07 11:17 36.08132 -115.14797 2119 ft 3 kts 60°
2026-05-07 11:18 36.08134 -115.14793 2118 ft 0 kts 60°